Zurück zum Katalog

FENGYUN 1C DEB

AktivSSO
NORAD 30505·DEBRIS·🇨🇳 China

Gestartet May 10, 1999 von Taiyuan Satellite Launch Center

Loading…

Nächste Überflüge (nächste 24 Stunden)

TLE

AktuellSource: Space-Track

Epoche: Sep 14, 2026, 12:17 UTC

1 30505U 99025AHT 26257.51202514  .00002114  00000-0  92851-3 0  9996
2 30505  98.9163 345.6544 0064240 169.7873 314.5879 14.23563699  8372

Verfolge FENGYUN 1C DEB in Echtzeit mit AllMySat

Download on the App Store